owner,sensor,date,latitude,longitude,air_pressure(mBar),qcFlag 
TABS,ioos:station:wmo:42044:1,2011-03-01T00:00:00Z,26.1914,-97.0507,1017.15,11111222 
TABS,ioos:station:wmo:42044:1,2011-03-01T00:30:00Z,26.1914,-97.0507,1017.57,11111222 
TABS,ioos:station:wmo:42044:1,2011-03-01T01:00:00Z,26.1914,-97.0507,1018.04,11111222 
TABS,ioos:station:wmo:42044:1,2011-03-01T01:30:00Z,26.1914,-97.0507,1018.55,11111222 
TABS,ioos:station:wmo:42044:1,2011-03-01T02:00:00Z,26.1914,-97.0507,1019.2,11111222 
TABS,ioos:station:wmo:42044:1,2011-03-01T02:30:00Z,26.1914,-97.0507,1019.65,11111222 
TABS,ioos:station:wmo:42044:1,2011-03-01T03:00:00Z,26.1914,-97.0507,1020.32,11111222 
TABS,ioos:station:wmo:42044:1,2011-03-01T03:30:00Z,26.1914,-97.0507,1020.78,11111222 
TABS,ioos:station:wmo:42044:1,2011-03-01T04:00:00Z,26.1914,-97.0507,1021.29,11111222 
TABS,ioos:station:wmo:42044:1,2011-03-01T04:30:00Z,26.1914,-97.0507,1021.64,11111222 
TABS,ioos:station:wmo:42044:1,2011-03-01T05:00:00Z,26.1914,-97.0507,1022.01,11111222 
TABS,ioos:station:wmo:42044:1,2011-03-01T05:30:00Z,26.1914,-97.0507,1021.75,11111222 
TABS,ioos:station:wmo:42044:1,2011-03-01T06:00:00Z,26.1914,-97.0507,1021.81,11111222 
TABS,ioos:station:wmo:42044:1,2011-03-01T06:30:00Z,26.1914,-97.0507,1021.67,11111222 
TABS,ioos:station:wmo:42044:1,2011-03-01T07:00:00Z,26.1914,-97.0507,1021.7,11111222 
TABS,ioos:station:wmo:42044:1,2011-03-01T07:30:00Z,26.1914,-97.0507,1021.45,11111222 
TABS,ioos:station:wmo:42044:1,2011-03-01T08:00:00Z,26.1914,-97.0507,1021.35,11111222 
TABS,ioos:station:wmo:42044:1,2011-03-01T08:30:00Z,26.1914,-97.0507,1021.33,11111222 
TABS,ioos:station:wmo:42044:1,2011-03-01T09:00:00Z,26.1914,-97.0507,1021.12,11111222 
TABS,ioos:station:wmo:42044:1,2011-03-01T09:30:00Z,26.1914,-97.0507,1021.3,11111222 
TABS,ioos:station:wmo:42044:1,2011-03-01T10:00:00Z,26.1914,-97.0507,1021.31,11111222 
TABS,ioos:station:wmo:42044:1,2011-03-01T10:30:00Z,26.1914,-97.0507,1021.29,11111222 
TABS,ioos:station:wmo:42044:1,2011-03-01T11:00:00Z,26.1914,-97.0507,1021.5,11111222 
TABS,ioos:station:wmo:42044:1,2011-03-01T11:30:00Z,26.1914,-97.0507,1021.94,11111222 
TABS,ioos:station:wmo:42044:1,2011-03-01T12:00:00Z,26.1914,-97.0507,1022.2,11111222 
TABS,ioos:station:wmo:42044:1,2011-03-01T12:30:00Z,26.1914,-97.0507,1022.4,11111222 
TABS,ioos:station:wmo:42044:1,2011-03-01T13:00:00Z,26.1914,-97.0507,1022.81,11111222 
TABS,ioos:station:wmo:42044:1,2011-03-01T13:30:00Z,26.1914,-97.0507,1023.12,11111222 
TABS,ioos:station:wmo:42044:1,2011-03-01T14:00:00Z,26.1914,-97.0507,1023.48,11111222 
TABS,ioos:station:wmo:42044:1,2011-03-01T14:30:00Z,26.1914,-97.0507,1023.73,11111222 
TABS,ioos:station:wmo:42044:1,2011-03-01T15:00:00Z,26.1914,-97.0507,1024.14,11111222 
TABS,ioos:station:wmo:42044:1,2011-03-01T15:30:00Z,26.1914,-97.0507,1024.22,11111222 
TABS,ioos:station:wmo:42044:1,2011-03-01T16:00:00Z,26.1914,-97.0507,1024.38,11111222 
TABS,ioos:station:wmo:42044:1,2011-03-01T16:30:00Z,26.1914,-97.0507,1024.5,11111222 
TABS,ioos:station:wmo:42044:1,2011-03-01T17:00:00Z,26.1914,-97.0507,1024.37,11111222 
TABS,ioos:station:wmo:42044:1,2011-03-01T17:30:00Z,26.1914,-97.0507,1024.13,11111222 
TABS,ioos:station:wmo:42044:1,2011-03-01T18:00:00Z,26.1914,-97.0507,1023.92,11111222 
TABS,ioos:station:wmo:42044:1,2011-03-01T18:30:00Z,26.1914,-97.0507,1023.51,11111222 
TABS,ioos:station:wmo:42044:1,2011-03-01T19:00:00Z,26.1914,-97.0507,1023.16,11111222 
TABS,ioos:station:wmo:42044:1,2011-03-01T19:30:00Z,26.1914,-97.0507,1022.78,11111222 
TABS,ioos:station:wmo:42044:1,2011-03-01T20:00:00Z,26.1914,-97.0507,1022.28,11111222 
TABS,ioos:station:wmo:42044:1,2011-03-01T20:30:00Z,26.1914,-97.0507,1021.79,11111222 
TABS,ioos:station:wmo:42044:1,2011-03-01T21:00:00Z,26.1914,-97.0507,1021.56,11111222 
TABS,ioos:station:wmo:42044:1,2011-03-01T21:30:00Z,26.1914,-97.0507,1021.22,11111222 
TABS,ioos:station:wmo:42044:1,2011-03-01T22:00:00Z,26.1914,-97.0507,1021.08,11111222 
TABS,ioos:station:wmo:42044:1,2011-03-01T22:30:00Z,26.1914,-97.0507,1020.98,11111222 
TABS,ioos:station:wmo:42044:1,2011-03-01T23:00:00Z,26.1914,-97.0507,1021.06,11111222 
TABS,ioos:station:wmo:42044:1,2011-03-01T23:30:00Z,26.1914,-97.0507,1020.92,11111222 
TABS,ioos:station:wmo:42044:1,2011-03-02T00:00:00Z,26.1914,-97.0507,1020.97,11111222 
TABS,ioos:station:wmo:42044:1,2011-03-02T00:30:00Z,26.1914,-97.0507,1021.19,11111222 
TABS,ioos:station:wmo:42044:1,2011-03-02T01:00:00Z,26.1914,-97.0507,1020.98,11111222 
TABS,ioos:station:wmo:42044:1,2011-03-02T01:30:00Z,26.1914,-97.0507,1020.94,11111222 
TABS,ioos:station:wmo:42044:1,2011-03-02T02:00:00Z,26.1914,-97.0507,1020.94,11111222 
TABS,ioos:station:wmo:42044:1,2011-03-02T02:30:00Z,26.1914,-97.0507,1021.42,11111222 
TABS,ioos:station:wmo:42044:1,2011-03-02T03:00:00Z,26.1914,-97.0507,1021.39,11111222 
TABS,ioos:station:wmo:42044:1,2011-03-02T03:30:00Z,26.1914,-97.0507,1021.53,11111222 
TABS,ioos:station:wmo:42044:1,2011-03-02T04:00:00Z,26.1914,-97.0507,1021.36,11111222 
TABS,ioos:station:wmo:42044:1,2011-03-02T04:30:00Z,26.1914,-97.0507,1021.21,11111222 
TABS,ioos:station:wmo:42044:1,2011-03-02T05:00:00Z,26.1914,-97.0507,1021.02,11111222 
TABS,ioos:station:wmo:42044:1,2011-03-02T05:30:00Z,26.1914,-97.0507,1020.71,11111222 
TABS,ioos:station:wmo:42044:1,2011-03-02T06:00:00Z,26.1914,-97.0507,1020.26,11111222 
TABS,ioos:station:wmo:42044:1,2011-03-02T06:30:00Z,26.1914,-97.0507,1019.87,11111222 
TABS,ioos:station:wmo:42044:1,2011-03-02T07:00:00Z,26.1914,-97.0507,1019.92,11111222 
TABS,ioos:station:wmo:42044:1,2011-03-02T07:30:00Z,26.1914,-97.0507,1019.63,11111222 
TABS,ioos:station:wmo:42044:1,2011-03-02T08:00:00Z,26.1914,-97.0507,1019.38,11111222 
TABS,ioos:station:wmo:42044:1,2011-03-02T08:30:00Z,26.1914,-97.0507,1019.24,11111222 
TABS,ioos:station:wmo:42044:1,2011-03-02T09:00:00Z,26.1914,-97.0507,1018.92,11111222 
TABS,ioos:station:wmo:42044:1,2011-03-02T09:30:00Z,26.1914,-97.0507,1018.56,11111222 
TABS,ioos:station:wmo:42044:1,2011-03-02T10:00:00Z,26.1914,-97.0507,1018.65,11111222 
TABS,ioos:station:wmo:42044:1,2011-03-02T10:30:00Z,26.1914,-97.0507,1018.72,11111222 
TABS,ioos:station:wmo:42044:1,2011-03-02T11:00:00Z,26.1914,-97.0507,1019.14,11111222 
TABS,ioos:station:wmo:42044:1,2011-03-02T11:30:00Z,26.1914,-97.0507,1019.24,11111222 
TABS,ioos:station:wmo:42044:1,2011-03-02T12:00:00Z,26.1914,-97.0507,1019.51,11111222 
TABS,ioos:station:wmo:42044:1,2011-03-02T12:30:00Z,26.1914,-97.0507,1019.63,11111222 
TABS,ioos:station:wmo:42044:1,2011-03-02T13:00:00Z,26.1914,-97.0507,1019.83,11111222 
TABS,ioos:station:wmo:42044:1,2011-03-02T13:30:00Z,26.1914,-97.0507,1020.33,11111222 
TABS,ioos:station:wmo:42044:1,2011-03-02T14:00:00Z,26.1914,-97.0507,1020.62,11111222 
TABS,ioos:station:wmo:42044:1,2011-03-02T14:30:00Z,26.1914,-97.0507,1020.91,11111222 
TABS,ioos:station:wmo:42044:1,2011-03-02T15:00:00Z,26.1914,-97.0507,1021.01,11111222 
TABS,ioos:station:wmo:42044:1,2011-03-02T15:30:00Z,26.1914,-97.0507,1021.1,11111222 
TABS,ioos:station:wmo:42044:1,2011-03-02T16:00:00Z,26.1914,-97.0507,1021.27,11111222 
TABS,ioos:station:wmo:42044:1,2011-03-02T16:30:00Z,26.1914,-97.0507,1021.42,11111222 
TABS,ioos:station:wmo:42044:1,2011-03-02T17:00:00Z,26.1914,-97.0507,1021.37,11111222 
TABS,ioos:station:wmo:42044:1,2011-03-02T17:30:00Z,26.1914,-97.0507,1020.93,11111222 
TABS,ioos:station:wmo:42044:1,2011-03-02T18:00:00Z,26.1914,-97.0507,1020.39,11111222 
TABS,ioos:station:wmo:42044:1,2011-03-02T18:30:00Z,26.1914,-97.0507,1020.02,11111222 
TABS,ioos:station:wmo:42044:1,2011-03-02T19:00:00Z,26.1914,-97.0507,1019.61,11111222 
TABS,ioos:station:wmo:42044:1,2011-03-02T19:30:00Z,26.1914,-97.0507,1019.02,11111222 
TABS,ioos:station:wmo:42044:1,2011-03-02T20:00:00Z,26.1914,-97.0507,1018.58,11111222 
TABS,ioos:station:wmo:42044:1,2011-03-02T20:30:00Z,26.1914,-97.0507,1018.12,11111222 
TABS,ioos:station:wmo:42044:1,2011-03-02T21:00:00Z,26.1914,-97.0507,1017.71,11111222 
TABS,ioos:station:wmo:42044:1,2011-03-02T21:30:00Z,26.1914,-97.0507,1017.67,11111222 
TABS,ioos:station:wmo:42044:1,2011-03-02T22:00:00Z,26.1914,-97.0507,1017.48,11111222 
TABS,ioos:station:wmo:42044:1,2011-03-02T22:30:00Z,26.1914,-97.0507,1017.17,11111222 
TABS,ioos:station:wmo:42044:1,2011-03-02T23:00:00Z,26.1914,-97.0507,1017.19,11111222 
TABS,ioos:station:wmo:42044:1,2011-03-02T23:30:00Z,26.1914,-97.0507,1017.1,11111222 
TABS,ioos:station:wmo:42044:1,2011-03-03T00:00:00Z,26.1914,-97.0507,1017.46,11111222 
TABS,ioos:station:wmo:42044:1,2011-03-03T00:30:00Z,26.1914,-97.0507,1017.46,11111222 
TABS,ioos:station:wmo:42044:1,2011-03-03T01:00:00Z,26.1914,-97.0507,1017.44,11111222 
TABS,ioos:station:wmo:42044:1,2011-03-03T01:30:00Z,26.1914,-97.0507,1017.55,11111222 
TABS,ioos:station:wmo:42044:1,2011-03-03T02:00:00Z,26.1914,-97.0507,1017.65,11111222 
TABS,ioos:station:wmo:42044:1,2011-03-03T02:30:00Z,26.1914,-97.0507,1017.84,11111222 
TABS,ioos:station:wmo:42044:1,2011-03-03T03:00:00Z,26.1914,-97.0507,1017.99,11111222 
TABS,ioos:station:wmo:42044:1,2011-03-03T03:30:00Z,26.1914,-97.0507,1018.21,11111222 
TABS,ioos:station:wmo:42044:1,2011-03-03T04:00:00Z,26.1914,-97.0507,1018.08,11111222 
TABS,ioos:station:wmo:42044:1,2011-03-03T04:30:00Z,26.1914,-97.0507,1018.21,11111222 
TABS,ioos:station:wmo:42044:1,2011-03-03T05:00:00Z,26.1914,-97.0507,1017.98,11111222 
TABS,ioos:station:wmo:42044:1,2011-03-03T05:30:00Z,26.1914,-97.0507,1017.92,11111222 
TABS,ioos:station:wmo:42044:1,2011-03-03T06:00:00Z,26.1914,-97.0507,1017.79,11111222 
TABS,ioos:station:wmo:42044:1,2011-03-03T06:30:00Z,26.1914,-97.0507,1017.43,11111222 
TABS,ioos:station:wmo:42044:1,2011-03-03T07:00:00Z,26.1914,-97.0507,1017.31,11111222 
TABS,ioos:station:wmo:42044:1,2011-03-03T07:30:00Z,26.1914,-97.0507,1017.08,11111222 
TABS,ioos:station:wmo:42044:1,2011-03-03T08:00:00Z,26.1914,-97.0507,1016.89,11111222 
TABS,ioos:station:wmo:42044:1,2011-03-03T08:30:00Z,26.1914,-97.0507,1016.73,11111222 
TABS,ioos:station:wmo:42044:1,2011-03-03T09:00:00Z,26.1914,-97.0507,1016.38,11111222 
TABS,ioos:station:wmo:42044:1,2011-03-03T09:30:00Z,26.1914,-97.0507,1016.03,11111222 
TABS,ioos:station:wmo:42044:1,2011-03-03T10:00:00Z,26.1914,-97.0507,1015.83,11111222 
TABS,ioos:station:wmo:42044:1,2011-03-03T10:30:00Z,26.1914,-97.0507,1015.8,11111222 
TABS,ioos:station:wmo:42044:1,2011-03-03T11:00:00Z,26.1914,-97.0507,1015.92,11111222 
TABS,ioos:station:wmo:42044:1,2011-03-03T11:30:00Z,26.1914,-97.0507,1016.07,11111222 
TABS,ioos:station:wmo:42044:1,2011-03-03T12:00:00Z,26.1914,-97.0507,1016.19,11111222 
TABS,ioos:station:wmo:42044:1,2011-03-03T12:30:00Z,26.1914,-97.0507,1016.26,11111222 
TABS,ioos:station:wmo:42044:1,2011-03-03T13:00:00Z,26.1914,-97.0507,1016.59,11111222 
TABS,ioos:station:wmo:42044:1,2011-03-03T13:30:00Z,26.1914,-97.0507,1016.78,11111222 
TABS,ioos:station:wmo:42044:1,2011-03-03T14:00:00Z,26.1914,-97.0507,1017.06,11111222 
TABS,ioos:station:wmo:42044:1,2011-03-03T14:30:00Z,26.1914,-97.0507,1017.59,11111222 
TABS,ioos:station:wmo:42044:1,2011-03-03T15:00:00Z,26.1914,-97.0507,1017.85,11111222 
TABS,ioos:station:wmo:42044:1,2011-03-03T15:30:00Z,26.1914,-97.0507,1017.81,11111222 
TABS,ioos:station:wmo:42044:1,2011-03-03T16:00:00Z,26.1914,-97.0507,1017.83,11111222 
TABS,ioos:station:wmo:42044:1,2011-03-03T16:30:00Z,26.1914,-97.0507,1017.67,11111222 
TABS,ioos:station:wmo:42044:1,2011-03-03T17:00:00Z,26.1914,-97.0507,1017.39,11111222 
TABS,ioos:station:wmo:42044:1,2011-03-03T17:30:00Z,26.1914,-97.0507,1017.13,11111222 
TABS,ioos:station:wmo:42044:1,2011-03-03T18:00:00Z,26.1914,-97.0507,1016.72,11111222 
TABS,ioos:station:wmo:42044:1,2011-03-03T18:30:00Z,26.1914,-97.0507,1016.38,11111222 
TABS,ioos:station:wmo:42044:1,2011-03-03T19:00:00Z,26.1914,-97.0507,1015.8,11111222 
TABS,ioos:station:wmo:42044:1,2011-03-03T19:30:00Z,26.1914,-97.0507,1015.22,11111222 
TABS,ioos:station:wmo:42044:1,2011-03-03T20:00:00Z,26.1914,-97.0507,1014.76,11111222 
TABS,ioos:station:wmo:42044:1,2011-03-03T20:30:00Z,26.1914,-97.0507,1014.5,11111222 
TABS,ioos:station:wmo:42044:1,2011-03-03T21:00:00Z,26.1914,-97.0507,1014.18,11111222 
TABS,ioos:station:wmo:42044:1,2011-03-03T21:30:00Z,26.1914,-97.0507,1013.92,11111222 
TABS,ioos:station:wmo:42044:1,2011-03-03T22:00:00Z,26.1914,-97.0507,1013.76,11111222 
TABS,ioos:station:wmo:42044:1,2011-03-03T22:30:00Z,26.1914,-97.0507,1013.68,11111222 
TABS,ioos:station:wmo:42044:1,2011-03-03T23:00:00Z,26.1914,-97.0507,1013.67,11111222 
TABS,ioos:station:wmo:42044:1,2011-03-03T23:30:00Z,26.1914,-97.0507,1013.64,11111222 
TABS,ioos:station:wmo:42044:1,2011-03-04T00:00:00Z,26.1914,-97.0507,1013.56,11111222 
TABS,ioos:station:wmo:42044:1,2011-03-04T00:30:00Z,26.1914,-97.0507,1013.42,11111222 
TABS,ioos:station:wmo:42044:1,2011-03-04T01:00:00Z,26.1914,-97.0507,1013.49,11111222 
TABS,ioos:station:wmo:42044:1,2011-03-04T01:30:00Z,26.1914,-97.0507,1013.69,11111222 
TABS,ioos:station:wmo:42044:1,2011-03-04T02:00:00Z,26.1914,-97.0507,1014.01,11111222 
TABS,ioos:station:wmo:42044:1,2011-03-04T02:30:00Z,26.1914,-97.0507,1014.23,11111222 
TABS,ioos:station:wmo:42044:1,2011-03-04T03:00:00Z,26.1914,-97.0507,1014.31,11111222 
TABS,ioos:station:wmo:42044:1,2011-03-04T03:30:00Z,26.1914,-97.0507,1014.33,11111222 
TABS,ioos:station:wmo:42044:1,2011-03-04T04:00:00Z,26.1914,-97.0507,1014.28,11111222 
TABS,ioos:station:wmo:42044:1,2011-03-04T04:30:00Z,26.1914,-97.0507,1014.03,11111222 
TABS,ioos:station:wmo:42044:1,2011-03-04T05:00:00Z,26.1914,-97.0507,1013.83,11111222 
TABS,ioos:station:wmo:42044:1,2011-03-04T05:30:00Z,26.1914,-97.0507,1013.76,11111222 
TABS,ioos:station:wmo:42044:1,2011-03-04T06:00:00Z,26.1914,-97.0507,1013.54,11111222 
TABS,ioos:station:wmo:42044:1,2011-03-04T06:30:00Z,26.1914,-97.0507,1013.23,11111222 
TABS,ioos:station:wmo:42044:1,2011-03-04T07:00:00Z,26.1914,-97.0507,1012.84,11111222 
TABS,ioos:station:wmo:42044:1,2011-03-04T07:30:00Z,26.1914,-97.0507,1012.54,11111222 
TABS,ioos:station:wmo:42044:1,2011-03-04T08:00:00Z,26.1914,-97.0507,1012.1,11111222 
TABS,ioos:station:wmo:42044:1,2011-03-04T08:30:00Z,26.1914,-97.0507,1011.69,11111222 
TABS,ioos:station:wmo:42044:1,2011-03-04T09:00:00Z,26.1914,-97.0507,1011.43,11111222 
TABS,ioos:station:wmo:42044:1,2011-03-04T09:30:00Z,26.1914,-97.0507,1011.11,11111222 
TABS,ioos:station:wmo:42044:1,2011-03-04T10:00:00Z,26.1914,-97.0507,1010.65,11111222 
TABS,ioos:station:wmo:42044:1,2011-03-04T10:30:00Z,26.1914,-97.0507,1010.68,11111222 
TABS,ioos:station:wmo:42044:1,2011-03-04T11:00:00Z,26.1914,-97.0507,1010.89,11111222 
TABS,ioos:station:wmo:42044:1,2011-03-04T11:30:00Z,26.1914,-97.0507,1010.88,11111222 
TABS,ioos:station:wmo:42044:1,2011-03-04T12:00:00Z,26.1914,-97.0507,1010.89,11111222 
TABS,ioos:station:wmo:42044:1,2011-03-04T12:30:00Z,26.1914,-97.0507,1011.04,11111222 
TABS,ioos:station:wmo:42044:1,2011-03-04T13:00:00Z,26.1914,-97.0507,1011.21,11111222 
TABS,ioos:station:wmo:42044:1,2011-03-04T13:30:00Z,26.1914,-97.0507,1011.56,11111222 
TABS,ioos:station:wmo:42044:1,2011-03-04T14:00:00Z,26.1914,-97.0507,1011.78,11111222 
TABS,ioos:station:wmo:42044:1,2011-03-04T14:30:00Z,26.1914,-97.0507,1012.18,11111222 
TABS,ioos:station:wmo:42044:1,2011-03-04T15:00:00Z,26.1914,-97.0507,1012.46,11111222 
TABS,ioos:station:wmo:42044:1,2011-03-04T15:30:00Z,26.1914,-97.0507,1012.54,11111222 
TABS,ioos:station:wmo:42044:1,2011-03-04T16:00:00Z,26.1914,-97.0507,1012.22,11111222 
TABS,ioos:station:wmo:42044:1,2011-03-04T16:30:00Z,26.1914,-97.0507,1012.08,11111222 
TABS,ioos:station:wmo:42044:1,2011-03-04T17:00:00Z,26.1914,-97.0507,1012.04,11111222 
TABS,ioos:station:wmo:42044:1,2011-03-04T17:30:00Z,26.1914,-97.0507,1011.66,11111222 
TABS,ioos:station:wmo:42044:1,2011-03-04T18:00:00Z,26.1914,-97.0507,1011.37,11111222 
TABS,ioos:station:wmo:42044:1,2011-03-04T18:30:00Z,26.1914,-97.0507,1011.1,11111222 
TABS,ioos:station:wmo:42044:1,2011-03-04T19:00:00Z,26.1914,-97.0507,1010.95,11111222 
TABS,ioos:station:wmo:42044:1,2011-03-04T19:30:00Z,26.1914,-97.0507,1010.46,11111222 
TABS,ioos:station:wmo:42044:1,2011-03-04T20:00:00Z,26.1914,-97.0507,1010.06,11111222 
TABS,ioos:station:wmo:42044:1,2011-03-04T20:30:00Z,26.1914,-97.0507,1009.54,11111222 
TABS,ioos:station:wmo:42044:1,2011-03-04T21:00:00Z,26.1914,-97.0507,1009.06,11111222 
TABS,ioos:station:wmo:42044:1,2011-03-04T21:30:00Z,26.1914,-97.0507,1009.13,11111222 
TABS,ioos:station:wmo:42044:1,2011-03-04T22:00:00Z,26.1914,-97.0507,1009.01,11111222 
TABS,ioos:station:wmo:42044:1,2011-03-04T22:30:00Z,26.1914,-97.0507,1009.04,11111222 
TABS,ioos:station:wmo:42044:1,2011-03-04T23:00:00Z,26.1914,-97.0507,1008.89,11111222 
TABS,ioos:station:wmo:42044:1,2011-03-04T23:30:00Z,26.1914,-97.0507,1008.82,11111222 
TABS,ioos:station:wmo:42044:1,2011-03-05T00:00:00Z,26.1914,-97.0507,1009.03,11111222 
TABS,ioos:station:wmo:42044:1,2011-03-05T00:30:00Z,26.1914,-97.0507,1009.14,11111222 
TABS,ioos:station:wmo:42044:1,2011-03-05T01:00:00Z,26.1914,-97.0507,1009.38,11111222 
TABS,ioos:station:wmo:42044:1,2011-03-05T01:30:00Z,26.1914,-97.0507,1009.61,11111222 
TABS,ioos:station:wmo:42044:1,2011-03-05T02:00:00Z,26.1914,-97.0507,1009.98,11111222 
TABS,ioos:station:wmo:42044:1,2011-03-05T02:30:00Z,26.1914,-97.0507,1010.65,11111222 
TABS,ioos:station:wmo:42044:1,2011-03-05T03:00:00Z,26.1914,-97.0507,1011.24,11111222 
TABS,ioos:station:wmo:42044:1,2011-03-05T03:30:00Z,26.1914,-97.0507,1011.51,11111222 
TABS,ioos:station:wmo:42044:1,2011-03-05T04:00:00Z,26.1914,-97.0507,1011.87,11111222 
TABS,ioos:station:wmo:42044:1,2011-03-05T04:30:00Z,26.1914,-97.0507,1011.77,11111222 
TABS,ioos:station:wmo:42044:1,2011-03-05T05:00:00Z,26.1914,-97.0507,1011.65,11111222 
TABS,ioos:station:wmo:42044:1,2011-03-05T05:30:00Z,26.1914,-97.0507,1011.52,11111222 
TABS,ioos:station:wmo:42044:1,2011-03-05T06:00:00Z,26.1914,-97.0507,1011.53,11111222 
TABS,ioos:station:wmo:42044:1,2011-03-05T06:30:00Z,26.1914,-97.0507,1011.25,11111222 
TABS,ioos:station:wmo:42044:1,2011-03-05T07:00:00Z,26.1914,-97.0507,1011.06,11111222 
TABS,ioos:station:wmo:42044:1,2011-03-05T07:30:00Z,26.1914,-97.0507,1010.42,11111222 
TABS,ioos:station:wmo:42044:1,2011-03-05T08:00:00Z,26.1914,-97.0507,1009.86,11111222 
TABS,ioos:station:wmo:42044:1,2011-03-05T08:30:00Z,26.1914,-97.0507,1010.21,11111222 
TABS,ioos:station:wmo:42044:1,2011-03-05T09:00:00Z,26.1914,-97.0507,1010.23,11111222 
TABS,ioos:station:wmo:42044:1,2011-03-05T09:30:00Z,26.1914,-97.0507,1010.56,11111222 
TABS,ioos:station:wmo:42044:1,2011-03-05T10:00:00Z,26.1914,-97.0507,1010.87,11111222 
TABS,ioos:station:wmo:42044:1,2011-03-05T10:30:00Z,26.1914,-97.0507,1011.05,11111222 
TABS,ioos:station:wmo:42044:1,2011-03-05T11:00:00Z,26.1914,-97.0507,1010.71,11111222 
TABS,ioos:station:wmo:42044:1,2011-03-05T11:30:00Z,26.1914,-97.0507,1011.58,11111222 
TABS,ioos:station:wmo:42044:1,2011-03-05T12:00:00Z,26.1914,-97.0507,1012.35,11111222 
TABS,ioos:station:wmo:42044:1,2011-03-05T12:30:00Z,26.1914,-97.0507,1012.86,11111222 
TABS,ioos:station:wmo:42044:1,2011-03-05T13:00:00Z,26.1914,-97.0507,1013.01,11111222 
TABS,ioos:station:wmo:42044:1,2011-03-05T13:30:00Z,26.1914,-97.0507,1014.23,11111222 
TABS,ioos:station:wmo:42044:1,2011-03-05T14:00:00Z,26.1914,-97.0507,1014.6,11111222 
TABS,ioos:station:wmo:42044:1,2011-03-05T14:30:00Z,26.1914,-97.0507,1014.41,11111222 
TABS,ioos:station:wmo:42044:1,2011-03-05T15:00:00Z,26.1914,-97.0507,1014.93,11111222 
TABS,ioos:station:wmo:42044:1,2011-03-05T15:30:00Z,26.1914,-97.0507,1015.92,11111222 
TABS,ioos:station:wmo:42044:1,2011-03-05T16:00:00Z,26.1914,-97.0507,1016.43,11111222 
TABS,ioos:station:wmo:42044:1,2011-03-05T16:30:00Z,26.1914,-97.0507,1016.25,11111222 
TABS,ioos:station:wmo:42044:1,2011-03-05T17:00:00Z,26.1914,-97.0507,1016.03,11111222 
TABS,ioos:station:wmo:42044:1,2011-03-05T17:30:00Z,26.1914,-97.0507,1015.85,11111222 
TABS,ioos:station:wmo:42044:1,2011-03-05T18:00:00Z,26.1914,-97.0507,1017.58,11111222 
TABS,ioos:station:wmo:42044:1,2011-03-05T18:30:00Z,26.1914,-97.0507,1018.34,11111222 
TABS,ioos:station:wmo:42044:1,2011-03-05T19:00:00Z,26.1914,-97.0507,1017.96,11111222 
TABS,ioos:station:wmo:42044:1,2011-03-05T19:30:00Z,26.1914,-97.0507,1018.53,11111222 
TABS,ioos:station:wmo:42044:1,2011-03-05T20:00:00Z,26.1914,-97.0507,1018.41,11111222 
TABS,ioos:station:wmo:42044:1,2011-03-05T20:30:00Z,26.1914,-97.0507,1017.84,11111222 
TABS,ioos:station:wmo:42044:1,2011-03-05T21:00:00Z,26.1914,-97.0507,1018.16,11111222 
TABS,ioos:station:wmo:42044:1,2011-03-05T21:30:00Z,26.1914,-97.0507,1018.71,11111222 
TABS,ioos:station:wmo:42044:1,2011-03-05T22:00:00Z,26.1914,-97.0507,1018.2,11111222 
TABS,ioos:station:wmo:42044:1,2011-03-05T22:30:00Z,26.1914,-97.0507,1018.32,11111222 
TABS,ioos:station:wmo:42044:1,2011-03-05T23:00:00Z,26.1914,-97.0507,1018.35,11111222 
TABS,ioos:station:wmo:42044:1,2011-03-05T23:30:00Z,26.1914,-97.0507,1018.69,11111222 
TABS,ioos:station:wmo:42044:1,2011-03-06T00:00:00Z,26.1914,-97.0507,1019.19,11111222 
TABS,ioos:station:wmo:42044:1,2011-03-06T00:30:00Z,26.1914,-97.0507,1019.08,11111222 
TABS,ioos:station:wmo:42044:1,2011-03-06T01:00:00Z,26.1914,-97.0507,1019.27,11111222 
TABS,ioos:station:wmo:42044:1,2011-03-06T01:30:00Z,26.1914,-97.0507,1019.78,11111222 
TABS,ioos:station:wmo:42044:1,2011-03-06T02:00:00Z,26.1914,-97.0507,1020.5,11111222 
TABS,ioos:station:wmo:42044:1,2011-03-06T02:30:00Z,26.1914,-97.0507,1020.67,11111222 
TABS,ioos:station:wmo:42044:1,2011-03-06T03:00:00Z,26.1914,-97.0507,1021.31,11111222 
TABS,ioos:station:wmo:42044:1,2011-03-06T03:30:00Z,26.1914,-97.0507,1021.46,11111222 
TABS,ioos:station:wmo:42044:1,2011-03-06T04:00:00Z,26.1914,-97.0507,1021.89,11111222 
TABS,ioos:station:wmo:42044:1,2011-03-06T04:30:00Z,26.1914,-97.0507,1022.3,11111222 
TABS,ioos:station:wmo:42044:1,2011-03-06T05:00:00Z,26.1914,-97.0507,1022.36,11111222 
TABS,ioos:station:wmo:42044:1,2011-03-06T05:30:00Z,26.1914,-97.0507,1022.43,11111222 
TABS,ioos:station:wmo:42044:1,2011-03-06T06:00:00Z,26.1914,-97.0507,1022.31,11111222 
TABS,ioos:station:wmo:42044:1,2011-03-06T06:30:00Z,26.1914,-97.0507,1022.42,11111222 
TABS,ioos:station:wmo:42044:1,2011-03-06T07:00:00Z,26.1914,-97.0507,1022.47,11111222 
TABS,ioos:station:wmo:42044:1,2011-03-06T07:30:00Z,26.1914,-97.0507,1022.31,11111222 
TABS,ioos:station:wmo:42044:1,2011-03-06T08:00:00Z,26.1914,-97.0507,1022.53,11111222 
TABS,ioos:station:wmo:42044:1,2011-03-06T08:30:00Z,26.1914,-97.0507,1022.44,11111222 
TABS,ioos:station:wmo:42044:1,2011-03-06T09:00:00Z,26.1914,-97.0507,1021.96,11111222 
TABS,ioos:station:wmo:42044:1,2011-03-06T09:30:00Z,26.1914,-97.0507,1022.22,11111222 
TABS,ioos:station:wmo:42044:1,2011-03-06T10:00:00Z,26.1914,-97.0507,1022.11,11111222 
TABS,ioos:station:wmo:42044:1,2011-03-06T10:30:00Z,26.1914,-97.0507,1021.91,11111222 
TABS,ioos:station:wmo:42044:1,2011-03-06T11:00:00Z,26.1914,-97.0507,1022.25,11111222 
TABS,ioos:station:wmo:42044:1,2011-03-06T11:30:00Z,26.1914,-97.0507,1021.98,11111222 
TABS,ioos:station:wmo:42044:1,2011-03-06T12:00:00Z,26.1914,-97.0507,1022.21,11111222 
TABS,ioos:station:wmo:42044:1,2011-03-06T12:30:00Z,26.1914,-97.0507,1022.63,11111222 
TABS,ioos:station:wmo:42044:1,2011-03-06T13:00:00Z,26.1914,-97.0507,1022.55,11111222 
TABS,ioos:station:wmo:42044:1,2011-03-06T13:30:00Z,26.1914,-97.0507,1022.81,11111222 
TABS,ioos:station:wmo:42044:1,2011-03-06T14:00:00Z,26.1914,-97.0507,1022.99,11111222 
TABS,ioos:station:wmo:42044:1,2011-03-06T14:30:00Z,26.1914,-97.0507,1023.03,11111222 
TABS,ioos:station:wmo:42044:1,2011-03-06T15:00:00Z,26.1914,-97.0507,1023.2,11111222 
TABS,ioos:station:wmo:42044:1,2011-03-06T15:30:00Z,26.1914,-97.0507,1023.31,11111222 
TABS,ioos:station:wmo:42044:1,2011-03-06T16:00:00Z,26.1914,-97.0507,1023.48,11111222 
TABS,ioos:station:wmo:42044:1,2011-03-06T16:30:00Z,26.1914,-97.0507,1023.48,11111222 
TABS,ioos:station:wmo:42044:1,2011-03-06T17:00:00Z,26.1914,-97.0507,1023.28,11111222 
TABS,ioos:station:wmo:42044:1,2011-03-06T17:30:00Z,26.1914,-97.0507,1022.76,11111222 
TABS,ioos:station:wmo:42044:1,2011-03-06T18:00:00Z,26.1914,-97.0507,1022.63,11111222 
TABS,ioos:station:wmo:42044:1,2011-03-06T18:30:00Z,26.1914,-97.0507,1021.99,11111222 